Terminal Aerodrome Forecast
Issued by NWS

Home | Current Version | Previous Version | Graphics & Text | Print | Product List | Glossary On
Versions: 1 2 3 4 5 6 7 8 9 10 11 12 13
000
FTUS43 KFGF 202300
TAFBJI
TAF
KBJI 202323Z 2100/2124 16007KT 5SM BR OVC005
     FM210800 17008KT 2SM -SN OVC003
     FM211200 17010KT 4SM BR OVC005=

USA.gov is the U.S. government's official web portal to all federal, state and local government web resources and services.